Precipitable_Water
0.58 0.61 0.63 0.64 0.65 0.67 0.69 0.69 0.71 0.73 0.72 0.71 0.69 0.70 0.71 0.72 0.73 0.75 0.78 0.81 0.86 0.89 0.95 0.98 1.01 1.13 1.21 1.23 1.22 1.25 1.28 1.32 1.33 1.35 1.31 1.26 1.20 1.17 1.23 1.23 1.20 1.21 1.22 1.26 1.41 1.44 1.40 1.37 1.38 1.36 1.40 1.30 1.33 1.44 1.43 1.34 1.31 1.27 1.24 1.25 1.24 1.22 1.14 1.06 0.96 0.90 0.94 1.01 1.03 1.04 1.12 1.15 1.15 1.27 1.26 1.30 1.34 1.35 1.37 1.35 1.32 1.25 1.17 1.08 0.99
0.57 0.60 0.63 0.64 0.63 0.67 0.70 0.73 0.74 0.75 0.75 0.75 0.73 0.72 0.73 0.74 0.76 0.76 0.75 0.78 0.82 0.83 0.85 0.93 0.98 1.04 1.16 1.23 1.25 1.23 1.24 1.26 1.30 1.31 1.31 1.31 1.23 1.16 1.16 1.18 1.16 1.16 1.17 1.21 1.35 1.48 1.55 1.48 1.50 1.41 1.37 1.34 1.46 1.41 1.35 1.27 1.21 1.16 1.14 1.13 1.14 1.17 1.26 1.18 1.12 1.02 0.92 1.01 0.97 1.02 1.02 1.06 1.03 1.18 1.20 1.20 1.21 1.27 1.26 1.26 1.28 1.26 1.22 1.19 1.12
0.58 0.59 0.62 0.65 0.66 0.68 0.72 0.74 0.75 0.77 0.76 0.77 0.77 0.78 0.78 0.79 0.80 0.78 0.78 0.79 0.81 0.82 0.83 0.84 0.90 0.98 1.07 1.18 1.24 1.24 1.23 1.23 1.25 1.26 1.25 1.25 1.25 1.19 1.15 1.15 1.14 1.12 1.14 1.21 1.27 1.33 1.43 1.55 1.56 1.58 1.54 1.47 1.48 1.33 1.25 1.15 1.11 1.06 1.06 1.10 1.09 1.13 1.24 1.30 1.24 1.12 1.04 1.02 1.08 1.04 1.01 1.01 0.99 1.01 1.08 1.18 1.24 1.24 1.19 1.21 1.22 1.25 1.23 1.22 1.18
0.58 0.59 0.61 0.65 0.68 0.69 0.71 0.75 0.74 0.76 0.76 0.78 0.80 0.83 0.83 0.82 0.85 0.83 0.82 0.82 0.83 0.85 0.86 0.85 0.83 0.89 0.96 1.06 1.16 1.23 1.24 1.25 1.24 1.25 1.26 1.26 1.25 1.24 1.20 1.18 1.16 1.13 1.14 1.17 1.22 1.24 1.30 1.46 1.54 1.49 1.51 1.44 1.41 1.30 1.17 1.14 1.13 1.12 1.10 1.16 1.22 1.28 1.36 1.37 1.40 1.30 1.24 1.08 1.11 1.06 1.08 1.06 1.11 1.12 1.09 1.10 1.19 1.21 1.18 1.19 1.24 1.23 1.24 1.22 1.19
0.58 0.58 0.61 0.64 0.68 0.69 0.71 0.74 0.74 0.75 0.77 0.81 0.83 0.85 0.87 0.87 0.86 0.83 0.82 0.82 0.85 0.87 0.89 0.89 0.84 0.84 0.87 0.95 1.04 1.12 1.18 1.23 1.25 1.24 1.24 1.24 1.23 1.22 1.23 1.23 1.20 1.15 1.13 1.15 1.21 1.25 1.28 1.33 1.48 1.48 1.38 1.34 1.33 1.30 1.28 1.22 1.23 1.21 1.18 1.24 1.28 1.31 1.34 1.40 1.46 1.44 1.32 1.18 1.16 1.22 1.24 1.23 1.20 1.17 1.18 1.11 1.15 1.22 1.23 1.22 1.21 1.23 1.27 1.31 1.29
0.59 0.58 0.61 0.63 0.66 0.69 0.71 0.73 0.75 0.77 0.79 0.82 0.84 0.84 0.88 0.89 0.87 0.86 0.83 0.82 0.84 0.87 0.87 0.89 0.89 0.87 0.88 0.91 0.97 1.04 1.10 1.15 1.18 1.22 1.23 1.21 1.18 1.19 1.20 1.21 1.23 1.20 1.15 1.20 1.23 1.26 1.26 1.29 1.43 1.48 1.33 1.24 1.25 1.28 1.27 1.24 1.24 1.23 1.25 1.29 1.28 1.30 1.33 1.38 1.45 1.48 1.35 1.31 1.23 1.13 1.18 1.15 1.17 1.20 1.21 1.22 1.17 1.15 1.23 1.27 1.29 1.29 1.27 1.27 1.30
0.58 0.58 0.59 0.62 0.65 0.68 0.71 0.74 0.78 0.80 0.82 0.84 0.85 0.85 0.86 0.87 0.87 0.84 0.82 0.80 0.80 0.79 0.83 0.85 0.89 0.89 0.90 0.90 0.93 0.99 1.02 1.06 1.09 1.15 1.20 1.21 1.20 1.17 1.17 1.17 1.18 1.19 1.19 1.24 1.25 1.26 1.28 1.26 1.31 1.40 1.37 1.25 1.23 1.27 1.30 1.28 1.26 1.23 1.26 1.30 1.32 1.31 1.31 1.30 1.40 1.46 1.35 1.29 1.24 1.21 1.16 1.25 1.26 1.16 1.20 1.27 1.31 1.31 1.21 1.20 1.20 1.26 1.30 1.29 1.27
0.59 0.57 0.57 0.60 0.64 0.68 0.72 0.76 0.79 0.80 0.84 0.86 0.85 0.84 0.83 0.83 0.83 0.85 0.83 0.79 0.77 0.78 0.79 0.82 0.86 0.89 0.90 0.92 0.92 0.95 0.98 0.99 1.00 1.04 1.10 1.17 1.21 1.19 1.18 1.20 1.23 1.22 1.19 1.22 1.25 1.24 1.25 1.29 1.35 1.39 1.36 1.33 1.25 1.28 1.31 1.31 1.33 1.30 1.33 1.34 1.36 1.34 1.34 1.36 1.39 1.38 1.27 1.17 1.13 1.15 1.21 1.21 1.26 1.32 1.34 1.27 1.21 1.25 1.33 1.26 1.17 1.19 1.23 1.30 1.31
0.59 0.60 0.59 0.60 0.64 0.69 0.73 0.77 0.80 0.82 0.83 0.84 0.82 0.81 0.81 0.83 0.83 0.83 0.85 0.83 0.81 0.79 0.78 0.81 0.83 0.86 0.90 0.91 0.95 0.94 0.91 0.92 0.94 0.95 0.98 1.04 1.10 1.15 1.20 1.23 1.24 1.24 1.27 1.29 1.29 1.28 1.26 1.27 1.32 1.32 1.28 1.26 1.25 1.24 1.28 1.34 1.34 1.32 1.36 1.38 1.38 1.37 1.35 1.36 1.36 1.34 1.25 1.14 1.06 1.12 1.16 1.17 1.19 1.22 1.22 1.20 1.11 1.06 1.23 1.32 1.26 1.27 1.29 1.28 1.35
0.61 0.62 0.61 0.62 0.66 0.71 0.74 0.77 0.78 0.81 0.82 0.80 0.79 0.79 0.81 0.83 0.83 0.84 0.85 0.85 0.83 0.82 0.79 0.79 0.82 0.85 0.87 0.91 0.91 0.91 0.89 0.89 0.91 0.93 0.93 0.97 1.02 1.08 1.12 1.18 1.24 1.26 1.26 1.27 1.28 1.27 1.25 1.26 1.29 1.30 1.26 1.18 1.15 1.16 1.21 1.28 1.34 1.36 1.37 1.37 1.35 1.34 1.34 1.34 1.33 1.31 1.24 1.15 1.11 1.11 1.07 1.09 1.17 1.23 1.21 1.23 1.28 1.31 1.28 1.28 1.21 1.24 1.34 1.32 1.37
0.63 0.63 0.63 0.65 0.68 0.72 0.74 0.75 0.77 0.77 0.78 0.77 0.78 0.80 0.81 0.82 0.83 0.83 0.85 0.85 0.84 0.83 0.81 0.78 0.81 0.84 0.86 0.87 0.86 0.86 0.86 0.87 0.89 0.91 0.91 0.92 0.97 1.02 1.05 1.09 1.15 1.23 1.26 1.23 1.20 1.20 1.20 1.22 1.25 1.28 1.25 1.19 1.19 1.21 1.23 1.23 1.24 1.26 1.30 1.35 1.38 1.38 1.35 1.32 1.33 1.33 1.27 1.19 1.17 1.16 1.13 1.10 1.15 1.22 1.20 1.22 1.30 1.33 1.37 1.37 1.31 1.29 1.28 1.22 1.16
0.63 0.63 0.65 0.68 0.71 0.73 0.75 0.75 0.75 0.76 0.76 0.76 0.77 0.81 0.81 0.81 0.82 0.83 0.85 0.85 0.84 0.84 0.81 0.80 0.81 0.82 0.85 0.85 0.84 0.84 0.84 0.86 0.87 0.88 0.89 0.89 0.91 0.95 1.00 1.02 1.05 1.11 1.19 1.22 1.23 1.23 1.23 1.24 1.26 1.29 1.27 1.23 1.21 1.20 1.19 1.21 1.23 1.25 1.28 1.29 1.30 1.32 1.34 1.31 1.29 1.28 1.27 1.21 1.17 1.16 1.16 1.14 1.15 1.23 1.20 1.20 1.19 1.24 1.31 1.34 1.31 1.29 1.27 1.25 1.25
0.63 0.63 0.66 0.70 0.71 0.74 0.75 0.75 0.74 0.74 0.75 0.77 0.78 0.79 0.79 0.79 0.81 0.82 0.84 0.86 0.86 0.83 0.83 0.81 0.82 0.83 0.83 0.83 0.83 0.84 0.84 0.84 0.84 0.85 0.87 0.88 0.89 0.91 0.94 0.98 0.99 1.02 1.08 1.14 1.16 1.19 1.22 1.24 1.27 1.30 1.28 1.26 1.23 1.22 1.22 1.21 1.19 1.20 1.23 1.23 1.21 1.22 1.23 1.24 1.24 1.21 1.23 1.21 1.18 1.18 1.19 1.21 1.21 1.24 1.30 1.30 1.34 1.25 1.28 1.27 1.28 1.31 1.32 1.26 1.18
0.64 0.64 0.66 0.70 0.72 0.75 0.75 0.74 0.73 0.74 0.75 0.76 0.77 0.78 0.79 0.79 0.81 0.84 0.85 0.86 0.85 0.85 0.84 0.82 0.82 0.83 0.83 0.83 0.83 0.83 0.82 0.83 0.83 0.83 0.84 0.86 0.88 0.88 0.90 0.92 0.94 0.97 1.02 1.05 1.07 1.11 1.14 1.19 1.22 1.25 1.30 1.32 1.30 1.29 1.28 1.27 1.25 1.23 1.21 1.21 1.21 1.22 1.21 1.21 1.18 1.15 1.13 1.10 1.10 1.09 1.15 1.22 1.20 1.27 1.38 1.44 1.36 1.29 1.28 1.24 1.30 1.30 1.31 1.30 1.30
0.63 0.64 0.66 0.70 0.73 0.74 0.74 0.74 0.74 0.74 0.74 0.75 0.76 0.78 0.79 0.80 0.80 0.82 0.83 0.84 0.84 0.83 0.83 0.82 0.82 0.83 0.84 0.84 0.83 0.82 0.82 0.82 0.82 0.81 0.82 0.82 0.84 0.86 0.88 0.89 0.91 0.94 0.98 1.02 1.05 1.05 1.07 1.09 1.13 1.16 1.20 1.19 1.20 1.20 1.17 1.17 1.20 1.20 1.17 1.14 1.15 1.18 1.22 1.24 1.24 1.23 1.20 1.18 1.14 1.11 1.10 1.12 1.12 1.15 1.22 1.33 1.33 1.35 1.39 1.35 1.34 1.32 1.32 1.37 1.35
0.61 0.64 0.66 0.70 0.72 0.74 0.74 0.74 0.75 0.75 0.74 0.74 0.74 0.75 0.78 0.79 0.79 0.81 0.82 0.83 0.85 0.85 0.85 0.84 0.82 0.81 0.83 0.84 0.82 0.80 0.81 0.81 0.80 0.80 0.81 0.81 0.84 0.86 0.87 0.88 0.91 0.94 0.97 0.99 1.00 1.03 1.04 1.04 1.04 1.06 1.03 1.02 1.03 1.03 1.03 1.04 1.03 1.02 1.01 1.02 1.02 1.04 1.07 1.16 1.21 1.29 1.37 1.35 1.30 1.27 1.27 1.27 1.25 1.23 1.23 1.23 1.26 1.27 1.24 1.25 1.29 1.25 1.19 1.15 1.12
0.59 0.63 0.65 0.68 0.72 0.74 0.75 0.75 0.75 0.74 0.74 0.72 0.72 0.74 0.75 0.77 0.79 0.82 0.81 0.81 0.80 0.80 0.82 0.82 0.82 0.80 0.81 0.82 0.82 0.80 0.80 0.79 0.78 0.77 0.79 0.80 0.82 0.87 0.88 0.87 0.88 0.91 0.95 1.02 1.05 1.06 1.08 1.07 1.04 0.99 0.95 0.93 0.92 0.92 0.92 0.93 0.92 0.90 0.89 0.88 0.89 0.91 0.94 1.03 1.12 1.18 1.23 1.25 1.26 1.29 1.29 1.28 1.28 1.27 1.25 1.24 1.21 1.21 1.17 1.10 1.04 1.09 1.05 1.01 1.04
0.58 0.61 0.63 0.67 0.70 0.72 0.74 0.74 0.73 0.73 0.73 0.71 0.72 0.74 0.75 0.77 0.79 0.82 0.81 0.80 0.79 0.79 0.81 0.81 0.81 0.80 0.80 0.80 0.81 0.80 0.79 0.78 0.76 0.76 0.77 0.79 0.82 0.85 0.87 0.85 0.84 0.87 0.90 0.96 1.00 1.03 1.02 1.02 1.00 0.97 0.96 0.95 0.95 0.96 0.96 0.96 0.91 0.89 0.86 0.83 0.82 0.82 0.85 0.92 0.94 0.98 1.06 1.12 1.17 1.21 1.25 1.27 1.28 1.28 1.27 1.27 1.26 1.26 1.19 1.07 1.11 1.10 1.00 0.98 0.93
0.55 0.58 0.61 0.65 0.69 0.71 0.72 0.74 0.75 0.73 0.72 0.71 0.72 0.72 0.74 0.76 0.79 0.81 0.82 0.81 0.80 0.81 0.81 0.80 0.80 0.80 0.80 0.80 0.81 0.79 0.79 0.78 0.77 0.76 0.76 0.78 0.80 0.84 0.85 0.84 0.81 0.83 0.84 0.87 0.91 0.95 0.95 0.96 0.94 0.93 0.91 0.90 0.90 0.91 0.91 0.91 0.88 0.86 0.84 0.81 0.77 0.76 0.82 0.83 0.82 0.80 0.82 0.86 0.91 0.97 1.01 1.07 1.11 1.15 1.19 1.22 1.25 1.26 1.25 1.21 1.21 1.15 1.08 1.06 1.02
0.51 0.55 0.59 0.63 0.64 0.68 0.72 0.73 0.74 0.74 0.73 0.72 0.72 0.73 0.74 0.75 0.76 0.78 0.79 0.79 0.79 0.79 0.80 0.79 0.78 0.79 0.80 0.79 0.79 0.78 0.77 0.76 0.76 0.75 0.76 0.77 0.78 0.80 0.82 0.80 0.78 0.79 0.83 0.85 0.85 0.89 0.92 0.91 0.90 0.87 0.86 0.86 0.86 0.85 0.84 0.84 0.82 0.81 0.80 0.75 0.72 0.71 0.78 0.78 0.78 0.79 0.76 0.76 0.77 0.82 0.85 0.90 0.93 0.96 1.01 1.05 1.08 1.10 1.11 1.12 1.13 1.14 1.12 1.11 1.11
0.47 0.47 0.52 0.56 0.60 0.63 0.66 0.68 0.70 0.71 0.71 0.69 0.70 0.71 0.71 0.72 0.74 0.75 0.75 0.77 0.77 0.77 0.76 0.77 0.77 0.78 0.79 0.78 0.78 0.79 0.78 0.74 0.74 0.74 0.75 0.76 0.77 0.77 0.77 0.76 0.76 0.77 0.80 0.82 0.83 0.83 0.83 0.86 0.89 0.89 0.88 0.87 0.87 0.86 0.86 0.85 0.85 0.84 0.82 0.78 0.77 0.78 0.79 0.74 0.74 0.74 0.72 0.71 0.72 0.75 0.78 0.81 0.83 0.86 0.87 0.88 0.89 0.92 0.97 1.03 1.04 1.05 1.02 0.97 0.98
0.45 0.44 0.43 0.47 0.54 0.55 0.57 0.63 0.64 0.67 0.66 0.67 0.66 0.65 0.68 0.69 0.70 0.71 0.73 0.73 0.72 0.72 0.72 0.73 0.73 0.73 0.74 0.74 0.77 0.77 0.76 0.75 0.73 0.72 0.73 0.74 0.75 0.76 0.76 0.76 0.77 0.77 0.77 0.78 0.80 0.80 0.82 0.84 0.85 0.86 0.87 0.87 0.86 0.85 0.83 0.82 0.82 0.82 0.82 0.82 0.82 0.81 0.78 0.78 0.75 0.73 0.71 0.70 0.69 0.69 0.71 0.72 0.74 0.78 0.81 0.84 0.86 0.88 0.89 0.92 0.98 1.04 1.06 1.07 1.00
0.41 0.42 0.38 0.42 0.42 0.45 0.51 0.53 0.56 0.59 0.60 0.62 0.62 0.61 0.63 0.65 0.67 0.68 0.68 0.68 0.68 0.67 0.68 0.69 0.68 0.67 0.67 0.70 0.73 0.72 0.73 0.72 0.71 0.70 0.71 0.72 0.73 0.74 0.75 0.76 0.77 0.78 0.76 0.75 0.76 0.78 0.81 0.82 0.83 0.84 0.84 0.84 0.84 0.83 0.83 0.84 0.85 0.85 0.86 0.87 0.86 0.85 0.84 0.81 0.78 0.76 0.73 0.72 0.70 0.67 0.68 0.69 0.70 0.72 0.75 0.79 0.84 0.88 0.91 0.93 0.93 0.93 0.93 0.95 0.98
0.38 0.40 0.38 0.32 0.39 0.40 0.42 0.45 0.48 0.52 0.53 0.54 0.55 0.54 0.54 0.60 0.61 0.61 0.62 0.62 0.62 0.62 0.63 0.64 0.63 0.61 0.61 0.63 0.68 0.70 0.70 0.70 0.68 0.68 0.69 0.69 0.70 0.72 0.73 0.74 0.75 0.76 0.77 0.76 0.78 0.80 0.80 0.80 0.81 0.82 0.83 0.84 0.84 0.83 0.83 0.83 0.83 0.83 0.83 0.85 0.85 0.86 0.85 0.83 0.81 0.79 0.78 0.77 0.75 0.75 0.75 0.78 0.78 0.78 0.81 0.87 0.91 0.95 0.97 0.99 1.00 1.00 0.99 0.98 0.99
0.37 0.38 0.39 0.37 0.36 0.39 0.39 0.39 0.37 0.44 0.47 0.48 0.47 0.47 0.45 0.43 0.48 0.55 0.57 0.55 0.56 0.55 0.56 0.56 0.56 0.57 0.58 0.58 0.60 0.63 0.62 0.60 0.62 0.64 0.65 0.66 0.67 0.69 0.70 0.72 0.73 0.75 0.76 0.78 0.79 0.77 0.77 0.77 0.77 0.78 0.79 0.80 0.80 0.82 0.81 0.80 0.79 0.80 0.81 0.81 0.84 0.83 0.84 0.83 0.82 0.82 0.79 0.77 0.77 0.78 0.80 0.82 0.84 0.85 0.89 0.91 0.93 0.96 0.95 0.96 0.98 0.99 1.01 1.02 1.01
0.38 0.29 0.39 0.39 0.37 0.34 0.38 0.40 0.39 0.34 0.39 0.41 0.43 0.43 0.40 0.34 0.36 0.43 0.47 0.52 0.53 0.51 0.52 0.52 0.52 0.53 0.54 0.55 0.55 0.53 0.51 0.52 0.55 0.57 0.59 0.61 0.63 0.65 0.68 0.70 0.71 0.73 0.75 0.76 0.76 0.77 0.77 0.76 0.75 0.75 0.75 0.77 0.78 0.78 0.78 0.78 0.77 0.77 0.79 0.79 0.81 0.80 0.80 0.81 0.81 0.79 0.77 0.78 0.79 0.79 0.81 0.84 0.85 0.88 0.90 0.91 0.89 0.88 0.89 0.88 0.88 0.90 0.92 0.92 0.91
0.38 0.40 0.38 0.40 0.40 0.35 0.31 0.35 0.39 0.33 0.22 0.28 0.30 0.34 0.34 0.26 0.22 0.26 0.35 0.38 0.41 0.45 0.44 0.46 0.45 0.43 0.45 0.45 0.44 0.42 0.41 0.43 0.44 0.46 0.48 0.50 0.54 0.57 0.61 0.64 0.66 0.67 0.68 0.68 0.68 0.69 0.70 0.70 0.71 0.71 0.71 0.71 0.72 0.73 0.73 0.76 0.74 0.73 0.74 0.75 0.75 0.76 0.77 0.78 0.77 0.76 0.77 0.78 0.79 0.80 0.82 0.85 0.88 0.88 0.86 0.87 0.86 0.88 0.90 0.88 0.87 0.88 0.90 0.91 0.88
0.34 0.35 0.37 0.40 0.30 0.38 0.39 0.24 0.38 0.34 0.23 0.18 0.17 0.23 0.28 0.25 0.17 0.17 0.22 0.25 0.31 0.31 0.33 0.35 0.35 0.33 0.32 0.33 0.32 0.31 0.30 0.30 0.31 0.30 0.33 0.35 0.40 0.45 0.48 0.50 0.49 0.49 0.50 0.53 0.55 0.58 0.60 0.61 0.61 0.60 0.61 0.63 0.62 0.63 0.62 0.65 0.65 0.66 0.62 0.63 0.65 0.68 0.70 0.72 0.73 0.73 0.74 0.76 0.77 0.78 0.79 0.81 0.81 0.81 0.82 0.82 0.81 0.83 0.86 0.85 0.83 0.84 0.86 0.86 0.83
0.29 0.33 0.36 0.39 0.31 0.36 0.37 0.33 0.35 0.35 0.30 0.28 0.18 0.15 0.16 0.19 0.17 0.16 0.19 0.21 0.21 0.22 0.27 0.28 0.30 0.30 0.27 0.23 0.23 0.22 0.22 0.22 0.23 0.27 0.28 0.30 0.32 0.35 0.38 0.40 0.41 0.42 0.44 0.46 0.48 0.50 0.49 0.47 0.44 0.43 0.42 0.42 0.42 0.43 0.46 0.47 0.48 0.50 0.50 0.50 0.52 0.55 0.57 0.59 0.61 0.62 0.64 0.66 0.67 0.68 0.70 0.73 0.74 0.75 0.76 0.75 0.75 0.76 0.80 0.78 0.79 0.79 0.80 0.80 0.77
0.33 0.36 0.35 0.38 0.35 0.35 0.40 0.38 0.35 0.36 0.36 0.32 0.28 0.24 0.18 0.15 0.15 0.13 0.13 0.17 0.19 0.21 0.22 0.22 0.25 0.26 0.25 0.23 0.23 0.20 0.20 0.23 0.25 0.25 0.25 0.27 0.29 0.31 0.34 0.37 0.38 0.39 0.39 0.40 0.42 0.39 0.34 0.31 0.30 0.30 0.29 0.28 0.28 0.28 0.30 0.31 0.32 0.32 0.35 0.36 0.36 0.35 0.38 0.39 0.44 0.47 0.49 0.49 0.52 0.52 0.54 0.58 0.60 0.62 0.64 0.65 0.67 0.70 0.74 0.72 0.72 0.74 0.71 0.71 0.70
0.38 0.40 0.38 0.35 0.25 0.26 0.35 0.36 0.36 0.37 0.33 0.35 0.35 0.30 0.30 0.25 0.20 0.20 0.18 0.15 0.15 0.17 0.18 0.20 0.21 0.23 0.24 0.23 0.24 0.25 0.25 0.25 0.25 0.25 0.25 0.25 0.26 0.27 0.28 0.30 0.31 0.32 0.33 0.33 0.32 0.31 0.29 0.28 0.27 0.29 0.29 0.27 0.26 0.26 0.25 0.26 0.25 0.25 0.26 0.29 0.28 0.26 0.25 0.24 0.28 0.30 0.31 0.31 0.34 0.34 0.35 0.38 0.39 0.41 0.43 0.47 0.51 0.55 0.59 0.62 0.63 0.64 0.63 0.63 0.63
0.40 0.44 0.43 0.37 0.30 0.16 0.33 0.25 0.27 0.35 0.36 0.34 0.37 0.33 0.34 0.33 0.27 0.22 0.25 0.22 0.18 0.15 0.15 0.17 0.18 0.20 0.22 0.23 0.24 0.26 0.26 0.25 0.26 0.26 0.29 0.31 0.31 0.30 0.29 0.29 0.30 0.32 0.33 0.34 0.29 0.28 0.27 0.27 0.28 0.27 0.27 0.27 0.28 0.28 0.27 0.25 0.25 0.23 0.21 0.23 0.25 0.25 0.22 0.21 0.22 0.24 0.25 0.26 0.26 0.24 0.23 0.25 0.26 0.26 0.26 0.27 0.29 0.29 0.31 0.32 0.35 0.38 0.41 0.44 0.47
0.37 0.43 0.43 0.37 0.28 0.30 0.34 0.37 0.28 0.36 0.28 0.32 0.31 0.31 0.36 0.35 0.31 0.22 0.27 0.27 0.26 0.19 0.17 0.18 0.19 0.20 0.22 0.24 0.25 0.24 0.24 0.24 0.25 0.29 0.33 0.35 0.36 0.36 0.35 0.34 0.32 0.31 0.31 0.30 0.27 0.25 0.27 0.26 0.24 0.25 0.25 0.24 0.24 0.24 0.25 0.25 0.24 0.25 0.21 0.23 0.25 0.27 0.25 0.24 0.22 0.23 0.24 0.25 0.25 0.23 0.22 0.24 0.24 0.23 0.22 0.23 0.22 0.22 0.24 0.25 0.26 0.27 0.28 0.26 0.27
0.36 0.39 0.39 0.38 0.41 0.40 0.39 0.36 0.36 0.36 0.31 0.32 0.29 0.30 0.26 0.29 0.34 0.27 0.26 0.29 0.29 0.29 0.24 0.25 0.25 0.22 0.22 0.23 0.24 0.24 0.25 0.26 0.28 0.30 0.33 0.33 0.33 0.34 0.34 0.35 0.35 0.34 0.32 0.30 0.30 0.28 0.26 0.25 0.26 0.25 0.25 0.25 0.23 0.24 0.21 0.24 0.22 0.24 0.20 0.22 0.24 0.28 0.27 0.23 0.22 0.23 0.23 0.23 0.23 0.23 0.22 0.23 0.24 0.23 0.23 0.22 0.22 0.22 0.22 0.23 0.24 0.23 0.23 0.24 0.24
0.35 0.32 0.31 0.32 0.38 0.40 0.42 0.43 0.35 0.36 0.34 0.30 0.26 0.30 0.23 0.24 0.24 0.25 0.30 0.29 0.28 0.30 0.30 0.28 0.32 0.33 0.29 0.26 0.26 0.29 0.31 0.32 0.33 0.32 0.32 0.31 0.31 0.31 0.33 0.33 0.30 0.34 0.33 0.29 0.28 0.29 0.28 0.26 0.25 0.25 0.26 0.25 0.23 0.23 0.22 0.23 0.21 0.23 0.19 0.21 0.21 0.25 0.22 0.20 0.22 0.25 0.23 0.20 0.20 0.20 0.20 0.19 0.19 0.22 0.22 0.21 0.20 0.20 0.21 0.21 0.21 0.22 0.23 0.23 0.23
0.36 0.38 0.36 0.28 0.20 0.30 0.38 0.39 0.37 0.37 0.30 0.33 0.34 0.33 0.29 0.22 0.30 0.29 0.25 0.27 0.28 0.35 0.35 0.35 0.33 0.36 0.35 0.34 0.33 0.34 0.35 0.35 0.35 0.33 0.31 0.30 0.30 0.31 0.29 0.27 0.28 0.27 0.29 0.28 0.27 0.28 0.29 0.29 0.27 0.27 0.27 0.27 0.26 0.24 0.24 0.24 0.23 0.23 0.22 0.22 0.21 0.22 0.18 0.19 0.22 0.25 0.22 0.19 0.17 0.18 0.19 0.18 0.18 0.19 0.19 0.19 0.19 0.20 0.21 0.20 0.20 0.22 0.23 0.22 0.22
0.34 0.37 0.37 0.34 0.23 0.22 0.37 0.43 0.39 0.36 0.34 0.34 0.28 0.27 0.23 0.26 0.26 0.30 0.33 0.29 0.25 0.31 0.36 0.38 0.38 0.38 0.38 0.37 0.37 0.35 0.36 0.36 0.36 0.36 0.35 0.33 0.33 0.33 0.31 0.29 0.27 0.28 0.25 0.29 0.27 0.28 0.28 0.29 0.29 0.27 0.28 0.27 0.27 0.26 0.25 0.25 0.24 0.24 0.23 0.24 0.23 0.22 0.20 0.20 0.22 0.24 0.21 0.18 0.16 0.16 0.17 0.18 0.18 0.17 0.17 0.16 0.18 0.21 0.21 0.20 0.20 0.21 0.21 0.22 0.22
0.39 0.41 0.40 0.42 0.38 0.34 0.40 0.40 0.37 0.31 0.29 0.30 0.25 0.31 0.32 0.29 0.30 0.29 0.30 0.31 0.31 0.34 0.37 0.37 0.38 0.37 0.36 0.36 0.38 0.35 0.34 0.36 0.38 0.37 0.37 0.36 0.35 0.35 0.34 0.31 0.31 0.30 0.28 0.29 0.29 0.28 0.28 0.29 0.29 0.28 0.28 0.29 0.28 0.27 0.26 0.26 0.26 0.26 0.25 0.24 0.23 0.24 0.24 0.22 0.22 0.23 0.22 0.20 0.18 0.18 0.18 0.18 0.18 0.17 0.16 0.16 0.18 0.19 0.19 0.19 0.20 0.20 0.21 0.22 0.22
0.38 0.41 0.41 0.40 0.40 0.40 0.40 0.37 0.36 0.25 0.21 0.18 0.22 0.30 0.30 0.32 0.31 0.30 0.34 0.37 0.37 0.39 0.37 0.40 0.39 0.39 0.38 0.39 0.38 0.39 0.37 0.33 0.33 0.35 0.37 0.36 0.36 0.36 0.35 0.35 0.34 0.34 0.34 0.33 0.32 0.32 0.31 0.30 0.30 0.29 0.29 0.29 0.29 0.28 0.27 0.26 0.25 0.25 0.25 0.24 0.23 0.23 0.23 0.23 0.22 0.23 0.24 0.23 0.21 0.20 0.19 0.19 0.18 0.18 0.18 0.18 0.18 0.19 0.19 0.20 0.20 0.20 0.21 0.21 0.22
0.42 0.40 0.36 0.34 0.34 0.32 0.38 0.40 0.39 0.31 0.26 0.27 0.31 0.34 0.33 0.30 0.32 0.35 0.35 0.36 0.40 0.41 0.40 0.40 0.39 0.41 0.41 0.42 0.41 0.40 0.36 0.35 0.34 0.33 0.38 0.38 0.37 0.38 0.38 0.36 0.35 0.35 0.36 0.36 0.36 0.35 0.35 0.34 0.33 0.31 0.30 0.30 0.30 0.30 0.30 0.29 0.28 0.27 0.26 0.25 0.24 0.23 0.24 0.24 0.24 0.23 0.23 0.24 0.25 0.25 0.23 0.22 0.19 0.18 0.19 0.20 0.20 0.20 0.20 0.20 0.20 0.20 0.21 0.22 0.23
0.45 0.45 0.42 0.38 0.31 0.26 0.28 0.35 0.40 0.40 0.38 0.35 0.38 0.38 0.37 0.36 0.38 0.41 0.41 0.41 0.38 0.41 0.41 0.42 0.40 0.42 0.45 0.44 0.43 0.41 0.39 0.38 0.38 0.38 0.38 0.36 0.39 0.40 0.38 0.38 0.37 0.37 0.37 0.37 0.37 0.36 0.35 0.35 0.35 0.34 0.33 0.32 0.32 0.32 0.32 0.32 0.31 0.30 0.29 0.28 0.27 0.26 0.25 0.25 0.24 0.24 0.24 0.25 0.25 0.24 0.23 0.22 0.21 0.21 0.20 0.21 0.21 0.21 0.22 0.22 0.21 0.20 0.20 0.22 0.23
0.50 0.49 0.44 0.42 0.37 0.30 0.26 0.28 0.32 0.38 0.41 0.42 0.39 0.40 0.41 0.41 0.42 0.43 0.43 0.46 0.43 0.42 0.42 0.42 0.45 0.46 0.46 0.46 0.44 0.43 0.42 0.41 0.43 0.43 0.42 0.42 0.40 0.39 0.39 0.39 0.40 0.39 0.38 0.39 0.39 0.38 0.38 0.38 0.38 0.38 0.37 0.37 0.35 0.34 0.33 0.32 0.32 0.32 0.32 0.31 0.30 0.29 0.27 0.26 0.25 0.25 0.25 0.25 0.25 0.24 0.23 0.23 0.23 0.24 0.23 0.23 0.22 0.22 0.22 0.21 0.20 0.20 0.21 0.22 0.23
0.52 0.53 0.49 0.45 0.41 0.38 0.33 0.33 0.35 0.38 0.39 0.41 0.45 0.46 0.46 0.46 0.46 0.47 0.47 0.46 0.44 0.43 0.43 0.42 0.46 0.49 0.48 0.47 0.46 0.45 0.44 0.44 0.46 0.46 0.47 0.43 0.42 0.42 0.41 0.41 0.41 0.43 0.44 0.43 0.42 0.42 0.41 0.41 0.41 0.40 0.40 0.39 0.39 0.38 0.37 0.35 0.34 0.34 0.33 0.32 0.32 0.32 0.31 0.30 0.29 0.27 0.26 0.26 0.26 0.26 0.25 0.24 0.24 0.23 0.23 0.23 0.23 0.23 0.23 0.22 0.21 0.21 0.22 0.22 0.21
0.53 0.55 0.56 0.51 0.46 0.43 0.38 0.36 0.40 0.42 0.43 0.43 0.43 0.45 0.45 0.46 0.46 0.48 0.47 0.48 0.49 0.50 0.50 0.49 0.50 0.50 0.49 0.49 0.49 0.48 0.47 0.47 0.47 0.48 0.43 0.43 0.43 0.41 0.42 0.44 0.44 0.44 0.45 0.45 0.44 0.44 0.45 0.44 0.44 0.44 0.43 0.43 0.42 0.41 0.40 0.40 0.40 0.38 0.36 0.34 0.34 0.33 0.33 0.32 0.31 0.30 0.28 0.27 0.27 0.27 0.26 0.26 0.25 0.25 0.24 0.24 0.24 0.23 0.22 0.22 0.22 0.23 0.23 0.22 0.22
0.59 0.57 0.55 0.56 0.55 0.49 0.45 0.42 0.42 0.44 0.47 0.49 0.49 0.49 0.50 0.52 0.53 0.54 0.55 0.55 0.54 0.54 0.54 0.55 0.54 0.52 0.52 0.53 0.52 0.51 0.50 0.49 0.50 0.47 0.46 0.46 0.45 0.45 0.45 0.45 0.45 0.45 0.45 0.45 0.45 0.43 0.42 0.42 0.42 0.43 0.43 0.44 0.45 0.45 0.43 0.42 0.41 0.40 0.41 0.40 0.38 0.36 0.36 0.35 0.34 0.33 0.32 0.30 0.29 0.28 0.28 0.27 0.26 0.26 0.25 0.25 0.24 0.23 0.23 0.24 0.25 0.25 0.23 0.22 0.22
0.61 0.61 0.60 0.58 0.56 0.56 0.55 0.54 0.53 0.51 0.52 0.52 0.53 0.54 0.55 0.56 0.57 0.57 0.55 0.55 0.55 0.55 0.55 0.54 0.53 0.52 0.51 0.51 0.53 0.53 0.53 0.52 0.50 0.50 0.50 0.51 0.50 0.50 0.50 0.50 0.49 0.49 0.50 0.50 0.50 0.49 0.48 0.47 0.46 0.46 0.45 0.46 0.46 0.47 0.46 0.43 0.42 0.42 0.43 0.43 0.43 0.42 0.42 0.42 0.41 0.37 0.34 0.33 0.32 0.32 0.30 0.29 0.28 0.27 0.27 0.25 0.25 0.25 0.25 0.25 0.26 0.25 0.23 0.23 0.23
0.63 0.62 0.63 0.62 0.60 0.58 0.56 0.55 0.54 0.54 0.53 0.53 0.53 0.54 0.55 0.58 0.59 0.59 0.59 0.59 0.59 0.59 0.59 0.56 0.55 0.54 0.54 0.54 0.54 0.54 0.54 0.54 0.53 0.54 0.54 0.54 0.54 0.54 0.54 0.53 0.53 0.53 0.53 0.54 0.54 0.54 0.53 0.53 0.52 0.50 0.49 0.48 0.48 0.46 0.45 0.45 0.45 0.45 0.45 0.45 0.46 0.45 0.45 0.44 0.43 0.41 0.39 0.38 0.37 0.35 0.33 0.31 0.29 0.28 0.27 0.27 0.26 0.25 0.25 0.25 0.24 0.24 0.24 0.25 0.25
0.68 0.66 0.65 0.64 0.63 0.61 0.59 0.57 0.55 0.53 0.52 0.53 0.54 0.54 0.56 0.58 0.60 0.61 0.61 0.61 0.61 0.61 0.60 0.58 0.57 0.59 0.59 0.58 0.60 0.61 0.60 0.58 0.56 0.56 0.56 0.57 0.57 0.56 0.56 0.55 0.55 0.55 0.55 0.55 0.55 0.54 0.54 0.53 0.51 0.51 0.50 0.49 0.47 0.46 0.44 0.41 0.42 0.45 0.46 0.45 0.44 0.44 0.43 0.43 0.43 0.42 0.41 0.39 0.38 0.36 0.34 0.32 0.30 0.29 0.28 0.27 0.27 0.26 0.25 0.24 0.24 0.25 0.25 0.25 0.25
0.71 0.69 0.67 0.67 0.65 0.63 0.61 0.59 0.57 0.54 0.53 0.53 0.53 0.55 0.57 0.59 0.60 0.60 0.60 0.60 0.60 0.60 0.59 0.59 0.59 0.60 0.62 0.63 0.63 0.63 0.63 0.61 0.60 0.59 0.58 0.59 0.58 0.58 0.58 0.57 0.56 0.56 0.55 0.54 0.54 0.54 0.52 0.51 0.50 0.49 0.48 0.46 0.45 0.43 0.40 0.38 0.37 0.40 0.40 0.42 0.43 0.42 0.41 0.41 0.41 0.41 0.41 0.40 0.39 0.38 0.36 0.34 0.32 0.30 0.29 0.29 0.28 0.28 0.26 0.25 0.25 0.25 0.25 0.25 0.24
0.74 0.71 0.69 0.68 0.67 0.66 0.65 0.63 0.60 0.58 0.58 0.56 0.55 0.55 0.56 0.57 0.58 0.59 0.59 0.59 0.60 0.61 0.61 0.61 0.62 0.63 0.64 0.64 0.64 0.64 0.64 0.63 0.62 0.61 0.61 0.61 0.61 0.60 0.60 0.59 0.58 0.57 0.56 0.54 0.54 0.53 0.51 0.49 0.48 0.47 0.46 0.44 0.42 0.40 0.39 0.38 0.40 0.40 0.40 0.38 0.38 0.37 0.37 0.38 0.39 0.38 0.38 0.37 0.36 0.36 0.34 0.33 0.32 0.30 0.30 0.29 0.29 0.29 0.28 0.27 0.26 0.25 0.25 0.24 0.23
0.76 0.74 0.71 0.69 0.69 0.68 0.67 0.65 0.63 0.63 0.63 0.61 0.57 0.56 0.56 0.58 0.59 0.59 0.61 0.61 0.62 0.62 0.63 0.63 0.63 0.64 0.65 0.65 0.65 0.65 0.65 0.65 0.65 0.64 0.64 0.63 0.62 0.62 0.61 0.60 0.59 0.58 0.56 0.55 0.54 0.52 0.50 0.48 0.46 0.45 0.44 0.42 0.40 0.38 0.37 0.38 0.40 0.40 0.39 0.39 0.38 0.37 0.36 0.35 0.35 0.34 0.34 0.34 0.33 0.33 0.31 0.30 0.28 0.27 0.27 0.28 0.29 0.29 0.29 0.28 0.26 0.25 0.25 0.25 0.25
Wind_Speed
15 14 14 14 14 14 13 13 13 13 12 12 12 13 13 14 14 14 15 16 16 17 17 17 17 18 20 21 21 22 22 24 25 27 29 31 32 31 29 30 30 30 29 26 24 24 26 27 28 28 27 27 26 26 26 25 25 24 23 23 22 22 22 22 21 20 20 19 19 18 17 17 17 18 18 18 18 18 18 18 18 18 17 17 18
16 15 15 14 14 14 14 13 13 12 12 12 12 12 13 13 14 14 14 15 16 17 17 18 17 18 18 20 21 21 22 24 25 27 28 29 31 33 32 30 30 31 30 26 23 22 22 23 25 26 26 26 25 25 26 25 25 25 25 25 25 24 23 23 23 22 22 21 21 20 20 20 20 19 20 20 20 20 20 20 20 19 19 19 19
16 15 15 15 14 14 14 13 13 12 12 12 12 12 13 13 13 14 14 14 15 16 17 18 18 18 18 18 19 19 19 21 23 26 28 28 30 32 34 33 31 31 32 29 25 23 21 20 21 23 24 24 24 24 25 25 25 25 25 25 25 25 24 24 25 24 23 22 22 22 21 21 22 22 21 21 21 21 21 21 21 21 21 21 20
15 15 15 15 14 14 13 13 12 12 12 12 12 12 13 13 13 14 14 14 14 16 16 17 19 19 19 18 18 18 18 18 20 23 26 27 29 30 33 34 33 32 33 31 28 25 23 20 20 22 23 23 24 24 24 25 25 25 25 25 24 24 24 25 25 24 23 23 22 22 22 22 22 23 23 23 23 23 23 23 22 22 22 22 22
14 14 14 14 14 13 13 12 12 12 12 12 12 12 12 13 13 13 14 14 14 15 16 17 18 20 20 19 19 19 18 18 18 19 21 24 27 29 31 33 34 33 33 33 30 28 25 22 20 22 23 23 23 24 24 24 24 24 24 25 25 25 25 25 25 24 24 23 23 23 22 22 23 23 23 23 24 24 24 24 24 23 23 23 23
13 13 13 13 13 13 12 12 12 12 12 12 12 12 12 12 13 13 13 14 14 14 15 16 17 19 20 19 19 19 19 18 18 18 19 21 23 26 29 31 33 33 33 34 33 31 28 24 21 22 25 25 24 24 24 24 24 25 25 25 25 25 25 25 25 24 24 23 23 24 24 24 24 24 23 23 24 24 25 25 25 24 24 24 24
12 12 12 12 12 12 12 12 11 12 11 11 11 11 12 12 12 13 13 13 14 14 15 15 16 18 19 19 19 19 19 19 18 18 18 19 20 22 26 29 32 33 33 34 33 32 31 28 24 23 25 26 25 25 25 25 25 25 25 25 24 24 24 24 24 24 24 24 24 24 24 24 24 24 24 24 24 25 25 26 26 26 25 25 25
11 11 11 11 11 11 10 10 10 11 11 11 11 11 11 12 12 12 13 13 14 14 15 15 16 17 19 20 20 19 20 19 19 18 18 18 18 20 22 25 29 32 34 34 33 33 33 31 28 26 26 26 25 25 25 25 26 26 26 25 25 24 24 25 25 25 25 25 26 25 25 25 25 25 25 25 25 26 26 26 26 26 26 27 27
10 10 10 10 10 10 10 10 10 10 10 11 11 11 11 11 11 12 12 13 13 14 15 15 16 16 18 20 20 20 20 20 19 19 19 18 18 18 19 21 24 28 32 33 32 32 33 32 30 28 28 28 27 26 26 26 26 26 27 27 26 26 26 26 27 27 26 27 27 27 27 26 26 26 25 25 26 26 26 26 27 27 27 27 27
8 8 9 9 9 9 9 9 10 10 10 10 10 10 11 11 11 11 11 12 13 13 14 14 15 16 16 18 19 20 20 20 19 20 20 19 18 18 19 20 21 24 27 29 31 31 32 32 31 30 31 30 29 29 28 27 28 28 28 28 28 27 27 27 27 27 27 28 28 28 28 28 28 27 27 27 27 27 27 27 28 28 28 28 28
7 8 9 9 9 9 9 9 9 9 9 9 9 10 10 10 11 11 11 12 12 12 13 13 14 14 15 15 17 19 20 20 19 20 20 21 20 19 19 19 20 22 23 25 28 29 30 30 30 30 31 31 30 29 29 29 29 29 28 28 28 28 28 28 28 28 29 29 28 28 28 29 29 28 28 28 28 29 29 29 29 29 29 29 28
6 7 8 8 8 8 8 9 9 9 9 9 9 9 10 10 10 11 10 11 11 11 12 12 13 13 13 14 15 17 19 20 20 20 20 21 22 21 20 20 21 21 22 22 24 26 27 27 28 28 30 30 30 29 29 29 28 28 28 28 28 28 28 28 29 29 30 30 30 29 29 29 29 29 29 29 29 30 30 30 30 30 30 30 30
5 6 7 7 8 8 8 8 9 9 9 9 9 9 9 10 10 9 10 10 10 10 11 11 12 12 12 13 14 15 17 18 19 20 20 21 22 22 22 22 22 22 22 22 22 23 24 25 26 26 27 28 29 28 27 27 27 27 27 27 28 28 28 29 29 30 30 31 31 31 31 30 30 29 29 30 30 30 30 30 30 30 31 30 30
5 6 7 7 7 8 8 8 8 8 8 8 8 8 8 9 9 9 9 9 9 9 10 10 11 11 11 12 13 14 15 17 18 19 20 20 21 22 23 22 22 23 23 22 21 22 23 24 25 25 25 26 26 26 26 26 26 26 27 27 27 28 28 29 29 30 30 31 32 32 32 32 32 31 31 31 31 30 30 30 30 31 31 31 31
6 7 7 7 7 7 7 7 8 8 8 7 7 7 7 8 8 8 8 8 8 8 8 9 10 10 11 11 12 13 14 15 17 18 19 20 20 21 22 21 21 22 23 23 22 22 23 23 24 25 25 25 25 25 25 25 26 26 26 27 27 27 28 28 28 29 29 30 31 32 32 33 33 33 33 33 32 32 32 32 32 32 33 33 33
6 7 6 6 6 6 6 7 7 8 8 8 7 7 8 8 7 8 8 7 7 8 7 8 8 9 10 10 11 11 13 14 15 17 18 18 19 20 20 20 20 20 21 22 22 22 22 23 24 24 25 26 26 26 26 26 26 26 27 27 28 28 28 29 29 29 30 30 30 31 31 32 33 33 33 33 33 34 35 35 35 35 35 35 35
6 6 6 6 6 6 6 7 7 7 7 7 8 8 7 7 7 7 7 7 7 7 7 7 7 8 8 9 9 9 10 11 13 14 15 16 17 19 19 19 19 19 19 20 20 20 21 21 23 24 25 26 26 26 26 26 27 27 27 28 28 28 28 29 29 30 30 30 30 30 31 31 32 33 33 33 34 34 35 35 35 36 37 37 37
6 6 6 6 6 5 5 5 6 6 6 7 7 7 7 7 7 7 7 7 6 6 6 6 7 7 7 7 7 7 7 9 10 11 12 14 15 17 18 18 18 18 18 18 19 19 19 19 20 22 24 24 25 25 25 26 27 27 28 28 29 29 29 29 29 30 30 30 30 30 31 31 31 32 32 33 34 34 35 36 36 36 38 38 39
6 6 6 5 5 5 5 5 5 5 5 6 6 6 6 6 6 7 6 6 6 6 6 6 6 6 7 6 6 6 6 7 8 9 10 12 13 15 17 17 17 18 18 18 18 19 19 19 19 20 21 22 23 24 25 25 26 27 27 28 29 29 30 30 30 31 31 31 31 32 32 32 32 32 32 33 34 34 35 36 37 37 38 39 40
6 6 6 5 5 5 5 5 5 4 5 5 5 6 6 6 6 6 6 6 6 5 6 6 6 6 6 6 6 6 6 6 7 7 8 10 12 14 15 16 16 17 18 18 18 18 18 18 18 19 20 21 22 23 24 24 25 25 26 27 28 28 29 30 31 32 33 33 33 33 33 33 33 33 32 33 33 34 35 36 36 37 39 39 39
6 6 6 6 5 5 6 5 5 4 4 4 5 5 5 5 5 6 6 5 5 5 5 5 5 6 6 6 6 6 5 6 6 6 6 8 9 11 13 14 15 15 16 17 18 18 17 17 18 19 20 21 21 22 22 23 23 24 24 25 26 27 28 29 29 30 31 32 33 33 33 33 33 33 32 32 33 33 34 35 35 36 37 38 38
5 5 6 6 5 5 5 5 4 4 4 4 4 4 4 4 4 4 5 5 5 5 5 5 5 5 6 6 6 5 5 5 5 5 5 6 7 9 11 12 13 14 15 15 16 17 17 17 18 19 20 20 20 21 21 21 21 22 23 24 25 26 26 27 27 28 28 29 30 30 31 32 32 32 32 33 33 33 33 34 34 35 36 37 37
5 5 5 6 6 5 4 4 4 4 4 3 3 3 4 4 3 3 4 4 5 5 5 5 5 5 5 5 5 5 5 5 5 5 5 5 6 7 9 10 11 12 13 14 14 15 15 15 16 17 17 18 18 19 19 19 20 21 22 23 23 24 24 25 25 26 26 27 27 28 28 29 30 30 31 31 32 32 33 33 34 35 36 37 38
5 5 5 5 6 5 5 5 5 4 4 4 3 3 3 3 3 3 3 3 4 3 3 4 4 4 5 5 5 4 5 5 5 5 5 5 5 6 7 8 9 10 11 12 12 12 12 13 13 14 15 15 16 17 17 18 19 19 20 21 22 23 23 23 24 25 25 26 26 27 27 27 28 29 29 30 31 31 32 33 34 35 35 36 37
4 4 4 5 5 5 4 4 5 5 4 4 4 3 3 3 3 3 3 3 2 2 2 2 3 3 4 4 3 3 4 5 5 5 5 5 5 5 5 6 7 8 9 10 10 10 11 12 12 13 13 14 15 15 16 17 17 18 18 19 20 21 21 22 23 23 24 25 25 26 27 27 28 29 29 30 31 32 32 33 34 34 35 36 37
4 4 4 4 4 4 4 4 4 4 5 4 4 4 4 3 3 2 2 2 2 2 1 1 1 1 2 2 2 3 3 3 3 3 3 4 4 4 4 4 4 5 6 7 8 9 10 11 12 12 13 13 13 14 15 15 15 16 17 17 18 18 19 20 20 21 22 23 24 25 25 26 27 28 29 30 30 31 32 32 33 33 34 35 36
4 4 4 3 3 4 3 3 3 4 4 4 4 4 5 4 4 3 2 2 2 2 2 2 2 1 0 1 1 2 2 2 2 2 2 2 2 3 3 3 3 3 5 6 7 8 8 9 10 10 11 11 12 12 13 13 14 14 14 15 16 16 17 17 18 18 19 20 21 22 23 24 25 26 26 27 28 29 30 31 31 32 33 33 34
4 4 3 3 3 3 3 3 3 3 4 5 4 4 4 5 5 5 4 4 3 3 3 3 3 3 2 2 1 1 1 1 1 1 2 1 1 1 1 1 2 3 4 5 5 6 6 7 7 8 8 9 9 10 10 11 11 11 12 13 13 14 14 15 15 16 17 18 18 19 20 21 22 23 24 25 26 27 27 28 29 30 30 31 32
3 3 3 2 3 3 2 3 3 2 3 4 5 5 5 5 5 5 5 5 4 4 4 4 4 4 4 3 3 3 2 2 3 2 2 2 2 1 1 1 2 2 3 4 4 4 4 5 5 5 6 6 7 8 8 9 10 10 10 11 12 12 13 14 14 15 16 16 17 18 18 19 20 21 22 23 24 25 25 26 27 28 28 29 30
3 3 3 3 2 2 2 2 2 2 2 2 3 4 5 5 5 5 5 4 4 4 4 4 3 3 3 3 3 3 3 3 3 3 3 3 3 3 3 3 3 3 4 4 4 4 4 4 5 5 6 7 7 8 9 10 10 11 11 12 12 13 13 14 15 15 16 16 17 17 18 19 19 20 21 22 23 23 24 25 26 26 27 28 28
4 3 2 2 2 3 3 2 2 2 1 1 1 2 3 3 4 4 4 4 4 3 3 3 3 3 2 2 3 3 2 2 2 2 3 3 3 3 3 3 4 4 4 4 4 5 5 5 6 6 7 8 8 9 10 10 11 11 12 12 13 13 14 15 15 16 16 17 17 18 18 19 19 20 21 22 22 23 23 24 25 25 26 27 27
6 4 2 2 2 3 3 2 2 2 1 1 0 0 0 1 2 3 3 3 3 3 2 2 2 2 2 2 2 2 2 2 3 3 3 3 3 4 4 4 4 5 5 5 5 5 5 6 6 7 7 8 9 9 10 10 11 11 12 12 13 13 14 14 15 16 16 17 17 18 19 19 19 20 21 22 22 23 23 24 24 24 25 26 26
6 5 3 2 3 3 3 3 2 2 2 2 1 1 1 1 0 0 1 1 2 2 2 2 2 2 2 2 2 2 3 3 3 4 4 4 4 5 5 5 5 5 5 5 5 5 6 6 7 7 8 8 9 10 10 11 11 12 12 13 13 14 15 15 16 16 16 17 17 18 19 19 20 20 21 21 22 23 23 23 24 24 25 26 26
6 5 4 4 4 4 3 3 3 3 3 3 3 2 2 1 2 2 2 2 1 1 1 1 2 2 3 3 3 3 4 4 4 5 5 5 5 6 6 6 6 5 5 5 6 6 6 7 7 8 8 9 10 10 11 11 12 13 13 14 14 15 15 16 16 16 17 18 18 18 19 20 20 21 21 21 22 23 23 23 24 24 25 26 26
6 6 6 6 5 4 4 4 4 4 3 4 4 3 2 2 3 3 3 3 3 3 2 2 2 3 3 4 4 4 5 5 5 6 6 6 6 6 6 6 6 5 6 6 7 7 7 8 8 9 9 10 10 11 12 12 13 13 14 14 14 15 16 17 17 17 17 18 19 19 20 20 21 21 22 22 23 23 23 24 24 25 25 26 26
7 7 7 7 6 5 5 5 4 4 4 4 5 4 4 4 4 4 4 4 4 4 4 4 4 4 4 4 5 5 6 6 7 7 7 7 6 6 6 6 6 6 7 7 8 8 9 9 9 10 10 11 11 12 12 13 13 14 14 15 15 15 16 17 17 17 18 18 19 20 20 21 21 22 22 23 23 24 24 24 25 25 26 26 27
8 7 7 7 6 6 6 6 5 5 5 5 5 5 5 5 5 5 5 5 5 6 6 5 6 6 5 6 7 7 8 8 9 9 8 8 7 7 7 8 8 8 8 9 9 10 10 10 10 11 12 12 12 13 13 14 14 15 15 15 16 16 17 17 18 18 18 19 19 20 20 21 21 22 22 23 24 24 24 25 25 26 26 27 27
9 8 8 7 7 7 7 7 6 6 7 6 6 6 6 6 6 6 6 6 6 7 7 7 8 7 7 7 8 9 10 10 10 10 10 9 9 9 9 9 10 10 10 11 11 11 12 12 12 13 13 14 14 14 15 15 16 16 16 17 17 18 18 18 19 19 19 20 21 21 21 22 22 23 23 24 24 24 25 25 25 26 26 27 27
10 9 9 9 8 8 8 7 7 7 7 7 7 7 7 7 7 7 8 8 8 8 9 9 9 9 9 9 10 10 11 11 11 11 11 10 10 11 11 11 12 12 12 13 13 13 14 14 14 15 15 16 16 16 17 18 18 18 18 19 19 19 20 20 21 21 21 22 22 23 23 23 24 24 24 25 25 26 26 26 27 27 27 28 28
11 11 10 10 10 10 9 9 9 8 8 8 8 8 8 8 9 9 9 10 10 10 10 11 11 11 11 11 10 11 12 12 12 12 12 12 13 13 12 12 13 14 14 14 15 15 16 16 16 17 17 18 18 18 19 19 20 20 21 21 21 22 22 22 22 23 23 24 24 25 25 25 26 26 26 26 27 27 28 28 28 29 29 29 29
12 11 11 11 11 11 11 11 10 10 10 10 10 10 10 10 10 11 11 11 11 11 12 12 12 11 11 11 12 12 13 13 13 13 14 14 15 15 14 14 15 16 16 16 16 17 17 18 18 19 19 20 20 21 21 22 22 22 23 23 23 24 24 24 25 25 25 26 26 26 27 27 28 28 28 28 29 29 29 30 30 30 31 31 31
12 12 12 12 12 12 12 12 12 12 12 12 12 12 12 12 12 12 13 13 13 13 13 13 13 12 12 13 13 14 14 14 14 15 15 15 15 15 16 16 17 17 18 18 18 19 19 19 20 21 21 22 22 23 23 24 24 25 25 25 26 26 26 27 27 27 27 27 28 28 29 29 30 30 30 30 31 31 31 31 32 32 32 33 33
13 12 12 13 13 13 13 13 13 13 13 13 13 13 13 13 14 14 14 14 14 15 15 15 14 13 13 14 14 15 15 15 15 16 16 16 16 16 17 17 18 19 19 19 19 20 21 21 22 23 23 24 25 25 26 26 27 27 27 28 28 28 29 29 29 29 29 29 30 30 31 31 31 31 32 32 32 33 33 33 34 34 34 34 35
13 13 12 13 13 13 14 14 14 15 15 15 15 15 15 15 15 16 15 15 15 15 16 15 15 15 15 15 15 16 16 16 16 16 16 16 16 17 18 19 19 20 20 20 21 22 22 23 24 25 25 26 27 27 28 28 28 29 29 30 30 31 31 31 31 30 30 31 31 32 32 33 33 33 33 33 34 34 35 35 35 35 35 36 36
14 14 14 13 13 13 14 14 14 15 15 15 15 15 16 16 16 16 17 16 16 16 16 16 16 16 16 16 17 16 16 16 16 17 17 17 17 18 19 19 20 20 21 22 23 24 24 25 26 26 27 28 28 29 29 30 30 31 31 31 32 32 32 32 32 32 32 33 33 34 34 34 34 35 35 35 35 36 36 36 36 37 37 37 38
14 15 15 14 14 14 14 14 15 15 15 15 16 16 16 16 16 16 16 16 16 16 16 17 17 17 17 17 17 17 18 18 18 19 19 19 20 21 21 21 21 21 22 23 24 25 25 26 27 27 28 28 29 30 30 31 31 32 32 33 33 33 34 34 33 33 33 34 34 35 36 36 36 37 37 37 37 37 37 37 38 38 38 39 39
15 15 15 15 15 15 15 15 15 15 16 16 16 16 16 16 17 17 16 17 17 17 17 17 18 18 19 19 19 19 20 20 20 21 21 22 22 23 23 23 23 23 24 24 25 26 26 27 28 29 29 29 30 30 30 31 31 32 32 33 33 33 33 33 34 34 34 34 35 36 37 38 38 39 39 39 39 39 39 39 39 40 40 40 40
15 15 15 15 16 16 15 15 16 16 16 17 17 17 17 17 17 17 17 18 18 19 19 19 20 21 21 21 21 21 22 22 22 23 23 24 24 25 25 25 25 25 25 26 26 27 28 29 30 30 30 31 31 31 31 32 32 32 32 32 32 32 32 33 33 34 34 35 36 38 39 39 40 40 40 41 41 41 41 41 41 41 41 41 41
16 16 16 16 16 16 16 16 17 17 18 18 18 18 19 19 19 18 18 19 20 21 22 22 22 22 22 23 23 23 23 23 24 24 25 26 26 27 27 27 27 27 27 28 28 29 29 30 31 31 31 31 32 32 32 32 32 32 33 33 33 34 34 34 34 35 36 37 39 39 40 41 41 42 42 42 42 43 42 42 42 43 42 42 43
18 18 18 18 17 17 18 18 19 19 20 20 20 20 20 20 20 20 21 22 23 24 24 24 24 23 23 23 24 24 24 25 25 26 26 27 28 28 29 29 29 29 29 29 30 30 31 31 32 32 32 32 32 32 33 33 33 32 33 34 34 35 35 36 37 38 38 39 40 41 42 42 43 43 43 44 44 44 44 44 44 44 44 44 44
19 20 20 19 19 19 19 20 20 20 21 20 20 19 19 19 20 21 22 23 24 25 26 25 24 24 24 24 25 25 25 26 28 29 29 30 30 30 30 30 30 30 30 30 31 31 32 32 33 32 33 33 33 33 33 33 33 33 33 34 35 36 37 38 39 40 41 42 43 43 43 44 44 44 44 45 45 45 45 46 46 46 46 45 45
Wind_Direction
294 293 292 292 292 293 293 290 285 282 281 280 278 273 268 264 263 263 260 255 253 252 248 242 237 235 234 235 236 237 235 233 231 229 228 226 225 226 227 225 224 223 223 227 232 232 232 234 231 228 228 228 229 229 227 228 231 236 239 240 242 244 244 245 245 246 248 249 250 251 251 253 252 249 249 252 252 251 251 252 253 253 254 255 254
290 290 289 289 289 290 290 289 285 282 280 278 276 274 270 266 265 264 263 259 255 253 249 243 238 234 234 235 236 237 239 237 235 231 229 227 226 226 226 225 224 223 221 224 227 228 232 234 229 225 225 226 227 227 228 232 235 238 240 241 243 245 245 246 247 247 248 249 250 251 251 252 253 253 253 253 254 253 253 253 254 255 256 257 258
288 287 286 285 286 286 286 286 285 283 279 276 274 274 272 268 266 265 264 262 258 254 251 245 238 234 234 235 236 238 239 239 237 234 232 230 228 227 227 226 225 223 221 223 227 228 233 234 228 225 225 226 227 230 233 236 238 239 241 242 244 245 246 248 249 248 249 249 249 250 251 252 252 254 255 256 256 255 254 255 255 256 257 258 259
287 284 283 283 282 281 282 282 282 281 278 275 275 275 274 271 268 267 265 264 260 256 253 248 241 236 234 234 235 236 239 239 237 235 232 231 230 229 227 226 226 225 224 225 227 229 233 238 234 230 228 228 230 233 235 236 237 239 241 242 243 246 247 249 250 249 248 250 251 251 252 253 253 253 255 256 257 256 256 256 256 257 258 259 260
287 282 279 279 279 277 278 277 278 279 277 276 277 276 275 274 272 270 268 265 263 258 255 251 244 238 235 235 235 235 236 238 237 234 232 231 231 230 229 227 226 227 226 226 228 229 233 239 241 236 232 231 232 234 235 235 237 239 241 243 245 246 248 249 250 248 247 249 251 252 254 255 254 254 255 256 256 255 256 257 257 257 259 259 260
287 283 278 278 277 275 275 275 276 277 276 277 279 277 276 277 275 274 271 268 266 262 257 254 248 242 237 235 236 237 236 236 237 235 232 232 232 231 231 230 228 228 227 227 229 230 231 237 244 242 236 233 234 234 235 237 238 240 243 244 246 248 247 247 248 249 248 248 250 252 254 254 255 255 256 257 258 256 256 257 257 258 259 259 260
289 286 281 279 277 275 275 275 275 275 275 278 281 280 279 280 279 278 275 271 269 267 261 257 252 246 240 236 236 238 237 237 237 236 234 233 233 233 232 231 230 228 228 228 230 232 232 235 243 244 237 234 235 235 237 239 241 242 244 245 246 247 246 245 248 251 250 250 251 253 254 254 255 256 256 258 260 259 257 257 258 259 259 259 260
290 288 283 279 278 276 275 275 274 274 275 278 281 282 282 282 281 279 278 274 271 269 265 260 255 250 244 238 235 235 236 237 238 239 238 237 236 235 234 233 231 229 228 229 231 233 233 235 241 242 237 234 235 236 239 242 243 244 245 245 245 246 246 247 250 253 254 253 253 254 254 255 255 257 258 258 259 259 259 258 259 260 261 260 260
290 288 284 280 278 277 276 276 276 275 277 279 282 283 283 283 281 279 279 277 273 270 266 261 256 252 247 241 236 233 234 236 238 239 239 239 239 238 236 234 232 230 229 230 231 232 233 236 240 240 237 235 236 238 241 244 245 246 246 245 246 248 249 250 252 254 255 255 254 254 254 254 254 256 258 258 258 259 259 259 260 261 262 262 262
292 292 289 282 279 278 276 276 277 277 279 280 281 283 283 283 282 281 280 278 276 271 266 260 255 253 249 242 237 234 234 235 238 239 237 237 239 240 239 237 232 229 229 230 230 230 233 237 240 240 239 238 239 240 243 246 247 247 248 248 249 250 251 252 253 254 255 255 255 255 254 254 254 255 257 259 260 259 259 260 260 261 261 262 262
296 297 293 285 280 278 275 275 277 279 281 281 281 282 283 283 283 283 282 280 278 273 265 259 255 251 249 245 240 238 237 236 237 238 237 237 237 239 240 240 236 232 230 230 230 232 234 237 240 241 240 239 240 241 244 246 247 246 248 249 250 251 252 253 253 255 256 256 256 256 256 256 256 256 258 260 260 259 260 261 261 262 262 263 264
306 305 298 288 282 279 275 273 276 279 282 281 281 283 284 285 284 283 283 282 278 273 266 259 254 250 249 249 246 242 239 238 238 239 238 238 238 239 240 240 238 235 232 231 231 233 236 239 240 240 239 239 240 242 244 245 245 245 246 248 249 251 253 254 255 255 256 257 257 257 257 258 258 257 258 261 261 261 261 262 263 264 264 264 265
319 315 305 294 286 281 277 275 275 277 279 279 280 283 284 285 285 283 283 284 281 274 267 259 253 250 249 250 250 248 245 243 241 241 241 240 239 239 240 240 239 237 235 235 234 234 237 239 240 240 239 238 240 242 244 244 244 244 246 249 251 252 254 255 256 257 257 257 257 257 258 259 259 258 260 262 261 261 262 264 264 264 264 264 265
331 323 311 301 293 285 279 278 276 275 277 280 281 283 285 285 284 283 282 283 282 276 268 261 254 250 249 251 252 252 249 247 245 244 244 243 242 240 239 239 238 236 235 236 237 237 238 238 238 239 238 237 239 241 243 245 245 247 248 251 253 254 255 256 257 258 259 258 258 258 258 259 259 260 261 262 261 261 263 265 265 264 263 264 265
339 329 317 307 300 291 283 280 278 276 276 278 280 281 285 287 286 284 283 283 281 276 268 261 254 249 248 249 252 254 253 251 248 246 245 245 244 240 238 238 237 235 234 235 237 239 240 238 238 239 238 238 240 243 244 246 247 249 251 254 255 256 257 258 259 259 259 259 260 259 259 259 260 260 261 262 261 262 264 265 266 266 265 265 266
340 332 324 316 308 299 289 282 279 278 276 277 280 282 284 288 288 286 286 284 282 278 269 261 255 249 248 249 251 255 256 255 253 249 246 245 242 237 235 236 236 236 235 235 237 239 240 238 238 239 239 240 243 246 247 248 249 252 254 256 258 259 259 260 260 261 261 262 262 261 261 261 261 261 261 262 263 264 265 266 266 266 265 265 265
339 335 329 324 315 304 294 286 280 279 278 278 281 284 285 287 287 287 286 285 283 280 272 261 254 250 249 251 253 256 256 258 257 252 247 244 239 234 233 235 237 238 238 238 239 240 240 239 239 240 242 243 245 247 249 250 251 253 256 257 259 260 260 260 261 262 264 264 264 264 264 264 263 263 263 263 265 266 266 267 266 266 265 265 266
338 337 334 332 327 316 305 297 288 281 280 280 280 284 286 286 286 287 286 285 283 279 271 261 253 249 250 252 256 258 259 262 262 256 249 244 238 232 232 235 237 238 240 241 241 241 242 242 242 243 245 246 248 250 252 253 253 255 257 258 259 259 260 261 261 262 264 265 264 265 265 265 265 265 265 265 265 266 267 267 268 267 266 266 267
339 341 342 340 337 332 323 314 304 292 286 284 282 283 285 284 284 287 285 283 282 278 269 258 250 248 250 253 257 263 268 271 270 264 254 246 239 233 232 234 236 237 239 241 242 243 244 246 248 250 251 252 252 253 255 256 256 257 259 259 260 260 260 262 264 264 265 265 265 265 265 265 266 266 266 266 266 266 267 268 268 268 267 267 268
343 345 345 347 346 342 337 329 318 305 294 290 285 282 282 283 284 285 284 282 279 274 266 256 248 246 247 252 258 266 277 282 279 271 261 251 243 237 234 235 237 238 238 240 242 245 247 248 251 255 256 256 256 256 257 259 260 260 261 261 261 261 262 264 265 266 266 266 266 266 266 266 267 267 267 267 267 267 268 268 269 269 269 269 269
345 344 342 349 355 348 343 340 330 317 304 296 292 286 282 284 287 285 282 279 273 268 263 254 247 244 245 249 255 263 278 287 286 277 266 256 248 241 238 237 237 236 236 239 242 245 248 249 252 255 256 258 259 260 261 262 262 262 262 263 264 265 266 266 267 268 268 268 267 267 267 267 267 268 268 268 268 268 269 269 270 270 270 271 271
345 349 345 348 355 351 346 347 342 333 322 309 302 298 289 287 291 289 281 273 265 261 259 252 245 244 244 244 246 256 273 286 289 284 274 264 255 246 241 240 239 237 237 238 240 243 247 250 252 256 258 259 260 262 263 264 263 264 265 267 268 268 268 268 269 270 270 269 269 269 268 268 268 268 268 268 268 268 269 270 271 271 271 272 272
347 357 354 350 353 353 350 348 346 344 339 328 319 316 306 299 300 298 287 274 263 255 251 248 246 243 242 240 241 252 268 282 291 293 288 280 269 255 247 245 244 242 242 242 243 245 247 250 252 255 258 259 261 262 264 265 266 267 269 271 271 271 271 271 272 272 272 271 271 271 271 270 270 270 270 270 271 271 271 271 272 272 272 273 273
350 355 358 357 356 357 0 359 355 352 352 348 343 336 327 321 319 318 310 293 279 266 254 249 246 242 241 239 238 246 262 276 287 293 292 288 280 269 258 252 249 247 245 246 249 251 252 254 256 258 259 260 261 263 264 267 268 270 272 273 272 272 273 273 274 274 274 273 273 272 272 272 272 272 272 273 273 273 273 273 274 274 274 274 275
353 350 354 2 1 356 0 9 9 5 4 7 7 358 347 339 335 338 343 334 318 307 287 260 246 240 239 234 233 246 265 275 281 287 290 288 284 280 272 265 259 252 248 250 255 258 261 264 266 266 266 266 265 265 266 269 271 272 274 275 275 275 275 275 275 275 275 275 274 274 273 273 273 273 274 274 274 275 275 275 276 276 276 276 276
356 354 353 2 9 3 3 16 24 19 18 24 27 25 20 8 354 355 6 10 10 9 0 341 254 239 237 231 238 254 270 278 281 289 293 287 282 282 280 279 272 257 251 259 265 265 267 269 270 271 272 272 272 272 270 271 274 276 277 277 278 279 279 278 278 278 278 277 277 276 276 276 275 275 276 276 276 277 277 278 278 278 278 278 278
353 360 357 2 13 14 12 16 24 29 31 32 36 42 41 36 33 36 38 41 46 48 50 61 66 75 188 203 222 240 256 277 289 304 312 304 290 283 276 279 284 272 267 274 276 272 270 270 272 275 276 275 278 281 279 278 281 284 284 283 284 285 285 284 284 284 284 283 282 282 281 280 280 280 279 279 279 279 280 280 280 281 281 280 280
353 356 355 2 11 15 16 18 24 36 40 39 43 51 52 52 56 59 59 64 70 70 74 81 78 76 94 118 119 119 117 70 35 22 14 11 360 316 272 281 294 291 288 289 283 274 272 273 277 280 280 278 281 286 287 287 289 291 293 293 293 292 292 292 291 290 290 289 288 287 286 285 284 284 283 283 283 283 283 283 283 283 283 283 282
344 342 343 356 8 9 14 24 33 45 48 45 47 50 53 57 65 68 68 71 75 75 78 83 81 75 79 86 84 78 71 58 48 38 28 22 18 5 329 309 309 309 308 304 293 281 280 282 283 286 289 289 291 293 295 296 298 300 301 302 302 301 300 300 298 297 297 296 294 294 293 291 290 289 288 287 287 287 286 287 286 286 286 285 285
321 325 335 352 2 359 2 16 28 43 57 55 48 48 52 54 57 63 68 71 71 72 75 81 80 74 72 74 69 62 57 51 40 29 21 14 5 351 329 313 308 310 315 313 306 299 299 300 300 300 302 304 305 305 304 304 304 305 304 305 306 306 305 304 303 301 301 300 299 299 299 297 295 295 294 293 292 291 291 291 291 290 289 289 288
295 297 309 336 341 340 347 355 359 11 36 55 53 50 53 51 49 51 56 58 57 58 62 66 64 59 59 60 55 49 44 33 15 5 1 356 351 341 328 316 309 310 315 316 311 307 307 307 307 305 305 306 306 306 306 306 306 306 305 305 306 307 307 306 305 304 303 302 301 302 301 300 299 299 298 297 296 295 295 294 294 293 293 293 292
288 298 311 325 322 324 330 333 331 337 351 357 333 297 42 57 50 43 40 42 43 43 43 45 40 33 30 29 23 16 4 348 337 329 323 324 328 327 323 319 316 315 315 314 311 312 311 310 309 308 307 308 307 307 308 308 308 309 309 307 307 309 310 310 308 306 305 305 305 305 304 303 302 302 301 300 300 299 298 298 297 296 296 295 295
285 298 309 307 304 303 302 303 305 307 310 314 305 283 261 248 258 325 4 19 23 23 25 24 12 1 354 347 340 335 331 328 325 317 309 309 314 316 314 312 314 319 321 315 311 313 312 309 310 309 308 308 308 308 308 308 307 309 310 309 307 307 310 311 309 308 308 308 307 307 306 305 305 304 304 303 303 302 301 301 300 300 299 298 298
278 284 285 282 283 285 286 287 290 293 295 297 300 297 286 279 278 274 273 279 286 305 327 337 343 344 338 332 327 325 324 323 321 316 309 305 307 309 306 299 298 304 309 306 303 303 305 305 305 305 305 306 306 306 307 307 306 307 309 309 306 305 308 310 309 309 309 309 308 308 308 307 306 306 305 305 304 303 303 303 303 302 301 301 300
271 272 273 272 270 270 277 281 280 283 282 279 281 284 280 275 277 277 276 274 270 269 277 294 310 318 322 327 326 322 321 321 321 319 314 308 307 309 307 301 298 297 298 299 300 300 301 303 305 305 304 305 306 306 307 307 307 307 308 309 308 306 308 310 310 310 311 310 309 309 308 307 307 306 305 305 305 304 304 304 303 303 302 302 302
267 267 270 272 267 261 268 274 273 272 275 275 275 275 273 272 273 271 269 271 275 272 269 280 297 301 303 312 316 314 313 313 312 312 312 310 310 310 307 304 303 300 298 301 303 302 302 303 304 304 305 305 306 307 308 308 308 308 308 309 309 308 310 311 311 311 312 312 311 310 309 308 308 307 307 306 306 305 304 304 303 303 302 302 302
263 263 265 268 265 260 265 271 270 268 269 270 271 272 269 268 271 272 268 269 278 277 267 270 284 290 292 302 309 310 308 305 302 302 303 303 303 302 298 297 300 300 300 301 303 302 302 303 302 303 304 303 303 305 305 306 306 306 307 307 307 307 310 311 310 310 311 312 311 311 311 310 310 309 308 308 307 306 306 305 305 304 303 303 302
258 261 262 262 261 261 265 268 268 269 268 265 265 269 270 266 267 271 270 268 274 278 275 274 277 278 279 289 298 303 306 305 301 297 295 294 295 296 295 294 297 298 298 299 300 300 300 300 301 302 302 301 301 302 303 304 304 304 304 304 304 304 307 308 308 308 309 310 310 310 310 309 309 309 309 308 308 307 307 307 306 305 305 305 304
254 257 258 257 257 260 264 267 267 268 266 263 262 266 270 269 268 272 273 272 273 277 279 281 282 278 275 279 287 296 302 303 298 294 292 291 290 289 288 291 294 294 293 294 296 297 298 299 299 300 300 299 299 300 300 301 301 301 300 300 301 301 303 304 305 305 306 306 306 306 307 307 307 307 307 307 306 306 306 306 306 306 305 305 305
253 255 256 256 257 258 259 263 265 265 263 262 262 264 266 267 269 272 275 276 278 279 281 284 286 282 277 279 288 296 301 300 294 289 289 289 287 282 282 287 290 289 288 288 290 291 293 293 294 295 296 295 295 296 297 297 297 297 297 297 298 298 300 301 302 302 303 303 304 304 304 305 305 305 305 304 304 304 304 304 304 304 304 304 304
253 254 255 256 258 258 257 257 261 263 263 263 264 265 265 267 271 275 276 278 280 281 281 285 287 283 278 282 289 296 299 298 292 285 284 286 287 286 286 289 289 288 287 288 288 289 289 289 290 291 292 291 292 293 293 294 294 295 295 295 296 296 297 298 299 300 300 301 302 302 303 303 303 302 302 302 302 302 302 302 302 302 302 302 302
254 253 253 255 259 261 259 257 258 261 262 263 265 266 266 267 269 271 273 276 279 280 281 284 285 283 280 283 287 292 296 296 291 287 286 288 290 290 289 289 289 289 290 290 290 290 289 289 289 290 290 291 291 292 292 292 292 292 293 293 293 294 295 295 297 297 297 299 300 301 301 301 301 301 301 301 300 300 300 300 300 300 300 300 300
256 255 254 256 260 262 261 260 259 261 262 263 264 267 268 269 271 272 273 274 277 278 280 282 282 280 280 283 286 290 293 293 290 288 288 289 291 291 291 291 291 292 292 292 293 293 292 292 292 292 292 293 293 293 293 292 292 292 291 291 291 292 292 293 294 294 294 295 298 299 299 299 299 299 299 299 299 299 299 298 298 298 298 298 298
256 257 257 259 262 264 264 262 262 263 264 265 266 268 270 271 273 275 276 276 276 277 279 281 281 279 280 284 286 288 290 290 289 289 290 290 291 292 293 293 294 294 294 294 296 296 296 295 295 295 295 295 294 294 293 293 292 292 292 291 291 290 290 290 291 291 291 293 295 297 298 298 298 298 298 298 298 298 298 297 297 297 297 297 297
255 258 259 260 262 264 266 266 265 265 266 266 267 269 270 271 272 274 275 276 278 279 280 281 281 280 281 283 284 285 287 288 288 290 292 293 295 297 297 296 295 295 295 296 296 297 297 296 296 296 296 296 296 295 294 294 293 292 292 291 291 291 291 290 290 289 290 291 293 295 296 296 297 297 297 297 297 297 297 297 297 297 297 296 296
255 258 260 261 263 264 265 266 266 266 266 267 268 269 269 270 272 273 275 277 280 281 281 282 283 283 283 283 283 284 285 287 288 290 292 294 295 296 296 296 296 297 298 298 298 298 298 297 297 297 297 297 298 298 297 296 295 293 292 292 292 292 293 293 291 290 290 291 293 294 295 296 296 297 297 296 297 297 297 297 297 296 296 296 296
257 258 259 261 263 264 264 266 267 267 267 268 268 269 270 271 272 272 272 273 275 276 277 280 284 286 285 284 283 284 285 286 286 288 290 291 292 292 293 295 296 297 297 297 298 298 297 297 297 297 298 299 300 299 298 297 296 296 295 295 294 294 295 295 294 293 293 293 294 295 295 296 296 297 297 296 296 296 296 296 296 296 296 296 295
257 258 259 261 262 264 265 266 267 269 270 270 270 270 271 271 272 272 272 273 273 273 273 277 282 284 283 282 282 284 285 286 286 286 288 289 290 291 292 293 294 294 295 295 295 295 296 297 297 297 298 299 300 300 299 297 296 296 296 296 296 296 296 296 296 295 295 295 295 295 295 295 296 296 296 296 295 295 295 296 296 296 296 295 295
259 260 261 262 263 264 266 267 269 270 271 271 272 272 271 270 271 273 275 277 278 277 277 279 281 280 280 280 282 283 284 285 287 289 290 291 291 292 292 293 293 294 294 294 294 294 295 296 296 296 296 297 298 299 298 297 296 295 295 296 296 296 296 296 296 295 295 295 295 295 295 295 295 295 295 295 295 294 294 294 295 295 295 295 295
261 262 262 262 263 264 266 268 270 271 271 271 270 270 271 272 273 276 278 279 280 280 280 280 280 279 279 281 283 283 284 285 288 290 291 292 292 293 293 293 293 294 294 295 295 295 295 296 296 296 297 298 299 299 298 298 297 297 297 296 297 297 296 296 295 295 295 295 295 295 296 296 296 295 295 295 294 294 293 293 294 294 294 294 294
263 264 263 263 263 265 267 269 270 272 274 274 271 269 269 272 275 279 281 282 282 281 280 279 279 279 280 282 283 284 285 287 288 289 290 291 291 292 291 291 292 293 294 294 294 293 293 295 297 298 298 299 300 299 298 298 298 298 298 298 298 297 297 296 296 296 295 295 295 295 295 296 296 296 295 295 294 293 293 293 293 293 293 293 293